NOAA NWS Hourly Roundups by Site

Regional Weather Roundup for Omaha, NE

To Select Another Site Choose from List

Select Site:  

506
ASUS43 KOAX 202210
RWRNE

WEATHER ROUNDUP FOR NEBRASKA
NATIONAL WEATHER SERVICE OMAHA NE
500 PM CDT FRI APR 20 2018

NOTES: SATELLITE DATA IS BEING USED TO AUGMENT CLOUD COVER ABOVE
       12000 FEET.
       "FAIR" INDICATES FEW OR NO CLOUDS BELOW 12,000 FEET WITH NO
       SIGNIFICANT WEATHER AND/OR OBSTRUCTIONS TO VISIBILITY.


NEZ001>004-019>022-054>056-202300-
NEBRASKA PANHANDLE

CITY           SKY/WX    TMP DP  RH WIND       PRES   REMARKS
SCOTTSBLUFF    CLOUDY    39  36  89 SE22      30.08R WCI  29
ALLIANCE       CLOUDY    36  36 100 SE21G30   30.11F WCI  25
CHADRON        CLOUDY    41  35  79 SE16      30.15R
GORDON         DRIZZLE   37  35  90 SE15G25   30.18R WCI  28
KIMBALL        CLOUDY    37  35  92 SE24G33   30.04R WCI  26
SIDNEY         CLOUDY    36  33  89 SE21G29   30.08F WCI  25
$$

NEZ057>060-069>072-079>082-202300-
SOUTHWEST NEBRASKA

CITY           SKY/WX    TMP DP  RH WIND       PRES   REMARKS
NORTH PLATTE   LGT RAIN  47  34  60 S5        30.23F
IMPERIAL       LGT RAIN  39  38  96 E15       30.16F WCI  31
LEXINGTON      CLOUDY    51  32  47 SE8       30.24R
MCCOOK         LGT RAIN  43  40  89 E9        30.19S FOG
OGALLALA       LGT RAIN  39  37  94 E15G21    30.17F WCI  30
$$

NEZ005>010-023>029-035>040-094-202300-
NORTH CENTRAL NEBRASKA

CITY           SKY/WX    TMP DP  RH WIND       PRES   REMARKS
VALENTINE      CLOUDY    48  34  58 S16       30.24S
AINSWORTH      CLOUDY    47  34  59 SE3       30.25F
BROKEN BOW     CLOUDY    52  32  46 SE9       30.22F
O`NEILL        CLOUDY    55  33  44 S8        30.30S
ORD            CLOUDY    55  30  38 SE10G17   30.22F
THEDFORD       CLOUDY    48  32  54 S9        30.23F
$$

NEZ041-046>049-061>064-073>077-083>087-202300-
SOUTH CENTRAL NEBRASKA

CITY           SKY/WX    TMP DP  RH WIND       PRES   REMARKS
GRAND ISLAND   CLOUDY    57  31  37 SE13      30.24F
AURORA         CLOUDY    57  28  33 SE8       30.24F
HASTINGS       CLOUDY    55  30  38 SE9       30.24F
HEBRON         CLOUDY    60  29  31 E12       30.23S
HOLDREGE       CLOUDY    50  34  53 SE6       30.22S
KEARNEY        CLOUDY    53  31  42 SE10      30.23F
YORK             N/A     59  28  31 S6        30.25F
$$

NEZ011>018-030>034-042>045-202300-
NORTHEAST NEBRASKA

CITY           SKY/WX    TMP DP  RH WIND       PRES   REMARKS
NORFOLK        CLOUDY    57  29  34 SE10      30.29R
ALBION         CLOUDY    57  31  38 SE8       30.27F
BLAIR          CLOUDY    62  29  29 E15       30.27F
COLUMBUS       CLOUDY    58  30  34 S8        30.29R
FREMONT        PTSUNNY   62  28  28 SE8G17    30.28S
TEKAMAH        CLOUDY    60  26  27 SE15G23   30.29F
WAYNE          CLOUDY    56  28  33 SE10      30.32R
$$

NEZ050>053-065>068-078-088>093-202300-
SOUTHEAST NEBRASKA

CITY           SKY/WX    TMP DP  RH WIND       PRES   REMARKS
LINCOLN        CLOUDY    60  25  26 SE8       30.28R
OMAHA EPPLEY   CLOUDY    62  27  26 E15G22    30.27F
BEATRICE       MOSUNNY   62  28  28 SE13G18   30.23F
FALLS CITY     MOSUNNY   61  26  26 E17G23    30.24F
NEBRASKA CITY  PTSUNNY   62  31  30 SE12      30.26S
PLATTSMOUTH    CLOUDY    61  28  29 E13G20    30.25F
$$

NEZ044-045-051>053-067-202300-
OMAHA AREA

CITY           SKY/WX    TMP DP  RH WIND       PRES   REMARKS
OMAHA EPPLEY   CLOUDY    62  27  26 E15G22    30.27F
BLAIR          CLOUDY    62  29  29 E15       30.27F
FREMONT        PTSUNNY   62  28  28 SE8G17    30.28S
MILLARD        CLOUDY    62  30  29 E9        30.27F
OFFUTT AFB     CLOUDY    61  27  28 SE14      30.26F
PLATTSMOUTH    CLOUDY    61  28  29 E13G20    30.25F
WAHOO          FAIR      62  20  20 SE12      30.28R
$$



 

View Past Reports for Omaha, NE.

Products Courtesy of NOAA-NWS
NWS Information Parsing Script by Ken True at Saratoga Weather - Script by SE Lincoln Weather.